Theta_e
352 351 353 355 356 356 355 353 357 361 362 357 355 356 356 352 352 352 354 354 356 354 350 351 351 352 350 351 349 351 352 351 350 352 356 359 357 358 358 361 358 359 361 358 353 352 355 356 359 354 356 352 351 351 350 355 351 352 354 350 348 356 356 353 350 349 353 356 353 349 350 355 359 366 361 355 361 365 361 367 373 367 364 365 361
348 348 352 352 351 353 355 357 358 360 361 361 358 356 355 353 354 356 354 359 360 357 356 351 350 350 351 351 350 349 353 354 352 352 352 355 355 353 355 362 361 359 360 360 358 351 357 358 357 353 354 352 350 348 348 346 350 347 348 345 343 348 356 350 351 348 350 356 352 358 350 355 352 357 359 357 364 363 361 361 372 370 366 367 366
349 350 352 351 351 352 356 358 358 360 359 360 360 358 358 355 356 357 356 357 360 359 361 356 360 360 359 355 353 350 353 353 352 351 350 351 351 351 353 358 357 356 355 356 356 355 353 356 353 354 352 351 351 349 349 347 347 354 345 345 344 344 348 352 351 350 347 352 359 351 348 349 347 354 356 358 364 366 363 361 357 365 364 360 361
350 350 350 352 352 352 353 355 358 358 358 359 359 360 359 362 363 357 357 360 361 360 360 359 361 360 358 355 355 354 352 352 351 351 351 350 350 351 352 356 355 355 353 352 352 353 352 352 351 352 353 352 351 349 351 349 347 347 346 345 345 345 348 359 360 364 356 357 356 354 361 359 360 360 373 370 360 364 359 359 358 356 363 364 357
351 354 355 354 354 352 352 355 358 359 358 356 356 356 358 358 358 355 359 360 362 363 364 363 358 359 354 351 350 353 353 351 353 352 352 352 351 350 350 353 353 355 355 354 355 353 352 351 352 352 353 350 350 349 350 350 347 346 344 346 347 349 347 354 358 356 357 351 357 362 364 361 363 365 365 356 360 359 366 362 354 354 361 359 358
355 355 356 354 355 356 357 357 357 357 357 357 357 357 358 362 358 358 359 357 358 361 362 361 359 355 354 353 351 350 352 351 354 353 352 352 351 352 353 353 352 356 356 353 352 353 351 352 351 351 351 350 349 352 352 349 349 348 347 347 349 352 353 355 355 362 355 357 357 358 364 361 362 360 364 362 356 354 356 358 361 361 358 355 359
357 356 354 354 355 355 354 355 356 357 357 358 360 361 361 361 360 359 357 358 359 360 360 360 359 354 354 353 352 353 352 350 354 354 352 351 350 349 351 351 352 353 352 353 354 354 351 350 350 349 350 352 351 350 349 348 347 350 352 359 355 356 354 360 363 358 357 357 357 356 354 358 357 354 361 361 356 354 349 351 353 362 364 363 363
359 357 356 354 354 352 355 355 357 359 360 361 361 361 360 360 362 361 360 357 357 357 357 357 358 356 355 354 355 354 356 358 353 353 354 352 350 348 349 349 349 350 351 353 354 352 351 350 349 350 351 354 352 350 349 348 350 348 348 352 355 360 355 355 358 359 355 349 350 352 354 354 357 353 357 361 359 359 358 355 352 356 359 364 365
359 355 356 355 355 355 356 357 358 359 361 361 361 360 359 359 359 361 359 357 355 355 356 355 354 355 356 354 353 354 354 354 356 354 354 354 353 349 348 348 348 347 347 349 351 352 351 351 351 351 355 366 364 361 357 355 346 348 355 362 361 355 357 360 361 359 357 355 353 354 353 353 355 355 355 355 353 351 362 358 353 355 358 359 362
357 356 355 354 356 356 357 358 358 359 356 357 359 360 360 360 359 358 357 356 354 354 354 354 354 353 354 355 353 353 352 354 357 361 358 357 356 352 350 349 348 347 348 346 346 350 350 350 351 358 361 364 364 365 366 371 360 358 363 368 367 363 362 357 356 358 358 356 351 351 349 347 345 348 349 349 350 353 349 350 349 354 357 355 358
357 355 355 356 357 357 357 357 358 359 358 356 355 359 357 356 358 359 357 355 353 353 352 350 351 352 352 351 352 351 352 352 354 346 347 355 356 354 351 352 353 354 349 349 347 345 346 350 353 357 364 366 365 367 366 370 370 367 366 358 359 366 362 355 356 358 357 353 354 350 346 345 347 348 346 346 350 349 351 356 355 355 353 351 348
357 357 357 358 357 357 357 358 358 358 358 357 359 357 358 358 357 356 357 356 353 351 349 348 349 350 350 352 352 349 348 351 343 342 344 347 359 354 352 350 349 349 348 346 345 345 347 347 350 352 355 356 354 360 368 368 367 368 368 366 363 362 360 362 361 358 355 351 351 349 348 346 350 355 351 349 354 355 359 361 358 358 355 353 354
358 357 358 358 358 358 359 358 357 358 359 358 355 356 358 355 353 352 352 353 352 351 348 348 348 349 351 349 349 351 351 351 339 341 341 341 345 361 352 350 348 348 347 348 354 359 352 348 349 350 347 360 363 353 362 367 367 364 365 365 366 363 348 344 349 352 352 351 349 348 350 353 351 355 360 359 363 354 357 356 357 358 357 355 356
358 357 357 358 359 359 359 358 356 358 359 356 355 355 355 354 353 353 354 352 349 348 347 348 348 348 347 348 350 351 349 349 337 338 339 339 341 350 360 360 363 362 361 358 355 358 362 365 360 355 352 359 360 357 358 361 365 363 362 363 360 360 361 351 347 347 352 348 346 345 349 354 351 355 364 366 360 357 356 355 358 356 352 350 354
357 357 357 359 359 358 359 357 357 356 357 356 355 354 354 354 353 352 351 352 348 348 349 348 348 348 348 349 347 347 348 342 334 335 335 336 338 350 356 358 358 359 359 360 362 361 361 361 361 360 364 361 360 353 353 354 355 358 358 353 352 351 351 351 351 353 352 350 347 347 347 349 350 350 353 357 357 360 364 364 359 354 351 352 350
356 357 356 359 359 360 358 358 357 356 355 355 353 352 352 353 354 355 353 352 352 351 350 349 347 346 346 345 346 345 347 337 334 332 332 333 340 351 354 355 356 356 357 359 361 362 364 361 362 364 360 362 359 357 358 356 353 349 348 347 347 349 351 354 343 344 355 356 357 355 353 353 349 359 363 362 362 362 361 364 357 353 350 346 344
355 356 356 358 360 360 357 357 356 355 354 354 354 352 352 352 355 354 351 353 350 348 347 347 348 344 344 346 346 346 347 340 330 329 330 331 342 351 354 353 354 353 354 358 362 362 361 359 358 362 360 358 353 338 341 355 351 348 347 345 347 350 350 351 346 342 341 339 337 334 332 332 333 332 331 333 346 355 357 353 351 353 346 341 341
356 357 356 358 358 359 359 357 355 354 354 353 353 353 355 356 355 354 352 351 349 348 346 345 347 348 346 343 344 344 347 343 328 325 326 328 346 351 353 353 353 355 357 359 363 361 358 357 358 360 358 358 346 338 339 353 352 351 348 347 345 345 346 348 350 357 343 340 339 337 336 334 333 332 333 333 332 342 347 344 348 351 348 346 342
356 356 357 359 359 359 359 357 355 355 354 355 354 353 354 354 355 355 354 353 352 351 348 347 346 346 347 345 345 344 346 345 328 325 323 324 341 352 353 353 352 352 355 358 358 359 358 358 357 356 356 356 338 336 336 353 351 352 349 346 344 343 345 349 352 352 353 353 356 359 357 351 355 356 356 349 343 347 348 349 351 350 347 347 347
359 359 359 358 360 360 358 358 357 356 355 355 355 355 356 356 354 354 353 353 349 350 350 348 347 346 346 346 347 347 346 346 340 321 321 322 332 351 353 351 349 350 347 351 353 352 353 354 355 347 337 336 333 330 330 339 350 350 347 344 341 340 345 348 350 350 350 352 353 356 356 357 357 357 357 356 357 360 356 354 353 352 349 348 347
358 359 359 359 358 359 359 357 357 357 357 357 357 357 357 356 357 353 352 352 350 350 348 345 343 346 348 348 348 348 348 347 345 322 320 320 325 341 350 350 348 346 344 344 348 349 350 352 353 352 333 328 327 326 324 327 341 348 349 345 344 346 348 349 350 353 352 351 351 354 355 357 357 356 356 356 357 358 358 357 359 358 355 351 348
360 359 359 358 357 357 358 358 358 358 359 358 356 354 356 356 355 353 354 352 348 347 346 346 344 344 346 347 347 348 350 350 348 326 320 318 320 326 346 350 348 346 344 344 343 343 345 350 351 349 332 325 324 321 320 322 329 346 347 334 333 334 346 350 353 350 349 349 349 349 351 353 353 353 353 353 353 354 356 358 359 359 358 356 353
359 359 359 358 358 357 358 356 357 358 358 358 356 354 355 355 353 352 350 349 348 346 345 344 343 342 342 345 346 347 349 351 346 342 323 318 317 319 328 341 335 350 344 342 343 345 347 349 351 349 330 323 319 318 317 319 332 338 329 327 327 331 345 348 348 347 349 348 346 344 347 350 350 349 349 349 352 355 355 354 355 355 354 353 354
360 359 358 357 357 358 357 357 357 357 358 358 358 355 354 353 353 352 352 350 350 349 348 345 343 341 340 340 343 346 347 349 349 347 336 319 316 316 318 322 333 346 349 346 348 349 348 348 347 334 325 316 315 318 318 324 332 323 323 325 328 335 344 346 345 348 347 346 346 346 347 349 350 350 349 349 350 351 349 348 347 349 353 354 354
358 357 357 357 357 357 358 357 357 356 357 357 355 355 354 353 352 352 350 349 347 346 346 346 345 342 341 340 342 341 343 345 348 347 339 327 318 316 318 320 320 325 343 348 350 348 341 332 326 323 322 318 317 319 320 323 321 322 322 327 344 344 344 345 345 346 346 345 345 346 347 349 349 350 351 350 348 347 346 346 348 350 354 355 353
356 356 356 357 356 357 355 355 356 357 356 357 357 356 354 354 352 351 350 349 348 346 347 345 345 345 345 342 341 342 343 344 346 349 346 339 327 319 319 321 330 329 340 344 344 335 328 322 318 319 322 322 330 334 338 338 326 325 325 333 343 344 344 345 345 345 344 344 345 346 346 349 346 349 350 350 348 348 349 348 348 347 348 347 347
356 357 356 354 355 356 354 355 355 356 355 357 357 356 356 356 353 351 351 349 348 348 346 346 345 345 345 345 343 342 343 345 346 348 349 346 341 333 327 327 331 333 334 339 335 334 331 332 332 327 330 331 335 341 342 344 341 338 338 340 342 343 345 345 346 345 345 345 344 345 347 349 352 350 348 349 348 350 348 346 345 343 344 344 343
347 352 352 351 351 352 353 351 353 354 355 356 354 354 355 352 353 351 350 350 348 347 347 348 345 346 347 347 347 345 345 346 347 348 348 348 347 341 337 337 336 336 337 340 340 342 341 342 335 339 343 339 338 342 344 346 346 344 344 343 343 344 347 349 349 348 346 346 346 349 348 348 346 345 346 343 344 346 346 345 342 341 342 342 339
349 350 350 349 349 353 352 351 352 351 354 355 358 354 352 351 350 353 354 348 352 351 349 352 351 350 349 350 348 345 345 345 347 338 351 335 346 346 344 344 342 341 342 333 342 343 343 342 340 340 340 341 341 341 342 343 344 345 346 346 346 346 346 345 343 345 347 345 345 347 345 343 343 344 342 340 344 343 345 342 341 340 340 341 338
349 349 350 349 349 348 351 349 349 348 351 353 351 343 321 316 324 346 347 327 316 308 313 345 348 354 354 351 344 348 347 350 330 319 315 316 319 324 328 326 327 341 337 326 342 343 342 341 340 339 339 340 340 341 342 343 343 344 344 342 346 345 345 345 342 344 347 346 344 341 341 341 341 341 340 339 341 342 342 335 338 341 339 338 336
342 344 347 346 346 347 346 346 349 351 352 352 351 351 345 330 300 305 320 320 309 299 298 301 310 316 338 349 328 311 316 314 307 307 306 308 310 309 309 312 316 319 317 333 342 342 341 339 340 340 341 341 341 342 343 344 343 341 342 344 344 344 339 342 345 342 342 339 338 338 340 339 340 339 337 336 336 336 336 339 340 341 339 336 334
341 343 347 347 349 352 348 349 347 348 350 351 351 350 349 345 338 306 299 305 303 298 299 299 300 303 306 318 344 330 310 304 302 303 304 304 304 303 306 307 305 305 312 323 340 341 342 340 340 340 342 342 341 342 342 343 342 341 341 342 340 341 341 342 340 342 340 340 338 337 339 339 337 336 337 336 334 333 336 339 339 337 336 336 335
346 347 349 349 349 350 350 352 351 349 347 349 349 348 346 346 344 338 322 300 298 300 299 297 296 296 301 302 307 322 314 305 300 300 301 301 301 301 301 301 303 306 315 331 339 341 342 342 341 341 341 340 340 340 341 341 342 342 343 343 344 341 339 340 343 341 339 338 339 337 338 339 337 335 333 334 333 335 338 336 337 336 336 334 334
343 346 347 349 350 352 349 351 352 353 352 349 347 347 346 346 345 345 338 335 329 312 301 297 298 299 295 296 303 303 300 299 299 299 299 300 300 301 305 308 298 301 316 338 339 339 341 341 340 341 341 340 339 344 343 343 342 344 343 342 343 341 341 343 342 339 337 337 336 334 335 336 335 333 333 333 335 337 335 337 337 336 334 333 332
346 348 350 348 348 349 349 351 351 354 353 351 351 345 346 347 348 347 343 342 340 339 338 327 306 297 316 308 298 298 298 298 299 299 299 300 302 302 307 328 330 329 329 332 337 339 339 340 340 341 345 347 344 344 345 343 342 343 343 340 341 342 342 339 339 339 336 337 336 335 336 335 335 333 333 333 334 335 336 335 334 334 332 332 330
349 346 339 339 339 341 343 344 348 354 354 352 351 347 344 343 342 342 343 345 344 343 342 338 328 307 300 295 294 297 297 298 298 298 299 300 301 307 333 335 335 334 333 334 334 337 339 341 341 346 348 346 344 345 344 344 343 343 343 342 338 339 338 339 337 337 337 336 335 338 332 335 334 334 334 333 335 334 334 334 333 331 331 333 331
335 337 338 339 338 339 340 342 343 345 345 347 347 348 345 344 342 342 343 343 344 343 343 333 325 321 317 316 305 297 295 297 298 298 300 301 300 320 336 337 337 338 336 336 337 337 338 339 344 345 344 345 345 345 343 342 342 341 341 340 343 340 337 340 339 338 335 333 334 335 334 333 335 334 332 331 333 335 334 332 333 330 331 330 329
339 337 336 338 338 338 339 340 342 342 344 347 350 349 345 346 345 343 342 344 344 343 341 336 333 332 329 324 318 316 308 299 300 302 303 304 313 324 330 335 338 339 338 339 339 339 339 341 342 341 343 344 341 340 340 340 339 338 338 341 340 342 336 333 334 337 335 334 333 334 333 333 334 334 332 331 332 332 332 331 333 330 330 329 330
339 334 332 334 335 341 342 341 342 344 345 344 344 345 343 343 343 343 345 343 343 342 343 340 338 337 335 325 322 320 317 319 322 324 324 325 326 329 332 335 337 339 340 341 341 340 340 340 341 341 340 339 340 340 338 338 338 336 337 337 336 336 333 334 334 335 333 333 333 334 335 337 335 333 333 332 333 334 334 331 331 329 328 328 329
337 337 334 332 334 335 340 342 343 342 343 344 344 343 341 343 343 342 343 342 342 342 341 343 341 343 337 328 326 322 325 326 328 330 330 329 330 332 334 335 336 337 339 340 340 340 339 339 340 339 339 340 340 339 342 345 338 339 342 337 334 333 333 333 331 333 334 333 334 337 337 338 340 343 337 341 334 336 335 333 331 329 329 330 329
341 340 341 335 334 341 341 339 337 336 338 341 343 343 342 343 343 342 341 341 341 341 341 342 344 345 334 326 316 318 330 331 332 333 333 333 333 334 335 336 337 338 338 340 341 340 340 339 340 339 340 341 342 339 340 339 337 335 336 336 335 333 333 334 335 334 333 335 337 334 336 337 339 338 337 332 335 332 332 338 335 333 332 330 331
344 344 345 345 341 341 339 338 339 338 338 338 338 342 341 342 342 341 340 341 339 340 340 341 343 344 327 314 309 309 330 336 336 336 337 336 336 337 337 338 339 340 339 340 342 340 340 341 339 339 339 337 339 338 336 336 335 334 333 332 333 334 332 331 333 335 336 334 335 336 336 333 335 335 336 333 330 332 334 328 333 334 332 330 330
347 346 347 346 342 340 338 337 341 341 337 339 339 341 343 342 341 340 340 340 339 339 339 338 340 344 330 314 314 311 332 338 340 338 338 338 338 339 339 339 339 341 342 343 343 342 341 340 340 337 338 337 339 337 336 336 336 334 333 333 333 332 333 333 332 334 335 335 333 333 335 333 328 329 331 331 331 335 334 335 330 328 326 331 329
343 344 344 342 342 342 340 340 337 337 339 340 342 341 340 342 340 340 338 338 337 337 336 337 336 341 333 321 316 320 333 338 339 339 339 338 340 339 339 340 341 341 342 342 342 342 340 338 338 336 339 336 337 339 337 336 336 335 335 333 331 332 333 335 331 332 330 333 334 331 329 330 332 335 332 330 333 336 333 332 333 331 330 330 329
345 344 342 341 341 342 340 341 340 340 339 338 340 342 340 340 339 337 336 335 335 336 337 336 336 339 334 331 329 330 334 337 338 338 339 339 339 340 340 341 342 344 342 341 342 342 338 337 338 336 336 337 337 337 337 337 340 335 334 336 333 331 332 337 335 332 332 334 333 330 330 330 331 330 333 332 330 329 328 325 331 327 327 328 326
342 343 342 341 341 340 340 341 338 338 339 338 338 338 338 338 337 337 336 336 336 336 336 335 335 340 337 336 334 333 335 338 339 338 338 339 339 340 341 341 342 343 343 342 342 342 338 338 338 336 336 337 338 336 338 336 335 337 334 339 336 334 333 337 338 337 337 338 335 334 335 336 336 332 332 335 331 330 327 327 328 330 327 328 328
339 338 339 339 340 339 340 340 339 337 335 336 338 337 337 337 336 335 335 337 336 338 335 335 334 334 343 339 338 337 338 338 338 338 339 340 340 341 342 343 343 344 343 343 342 339 339 339 338 338 337 338 340 340 338 336 334 338 339 346 341 339 330 331 335 339 337 338 336 339 336 335 330 332 331 327 328 329 327 330 329 327 330 331 329
336 339 338 337 337 337 338 339 336 335 334 333 334 335 335 335 336 336 337 337 337 336 335 335 336 336 335 340 341 340 339 340 338 338 338 338 339 341 342 344 343 344 343 341 340 338 336 338 339 339 337 339 339 337 337 337 335 340 342 341 339 341 325 326 340 340 343 343 339 336 335 334 331 328 327 332 332 331 330 331 328 329 329 328 328
336 337 339 337 336 336 336 335 333 335 335 335 333 333 334 336 336 336 337 336 336 336 336 335 335 335 335 336 337 340 339 337 339 339 338 338 340 342 342 343 342 342 340 338 339 338 339 339 339 340 339 340 339 338 339 336 335 335 335 335 320 303 309 314 324 331 322 343 338 339 337 334 335 331 327 326 327 328 328 330 328 326 327 329 325
339 338 338 336 336 337 338 338 338 337 336 335 334 334 333 333 334 335 336 335 335 335 336 335 335 335 335 335 334 336 336 337 337 338 338 339 340 341 341 340 341 341 339 338 337 339 341 341 342 339 338 339 337 337 336 334 336 334 334 330 306 306 307 305 305 309 329 338 336 335 332 333 334 333 332 332 332 326 326 328 326 325 325 325 325
336 339 337 335 335 334 335 337 335 334 335 335 336 336 333 332 332 333 334 335 335 335 335 336 335 335 335 337 335 337 337 339 339 339 340 340 340 340 340 340 339 339 339 338 339 340 340 339 339 338 337 336 336 336 336 334 334 336 321 307 305 303 302 307 319 298 299 311 336 332 330 329 330 329 329 331 329 327 327 326 325 327 325 326 325
Wind_Speed
8 6 5 6 5 6 6 7 9 8 7 8 7 7 7 7 7 7 7 10 11 10 10 12 13 10 11 12 13 11 10 10 10 9 9 9 9 7 6 7 7 7 6 8 9 7 6 6 5 4 3 3 4 4 4 3 4 1 2 4 5 2 3 3 2 3 3 2 4 4 5 4 3 4 3 5 5 5 6 3 5 5 6 6 7
6 8 7 6 7 8 8 8 8 7 8 9 10 9 9 8 8 8 9 10 7 9 9 10 10 12 13 10 12 12 11 10 11 9 9 9 11 11 9 8 8 8 7 7 7 8 7 8 5 7 7 6 7 9 6 5 4 3 2 3 7 6 3 5 5 5 4 2 3 1 3 3 5 4 4 3 6 5 6 6 5 6 7 7 7
6 5 6 7 8 8 8 7 8 8 10 9 10 10 9 9 9 7 7 9 10 12 6 2 3 2 3 9 12 12 10 12 12 11 11 11 12 12 11 9 9 9 9 9 10 9 7 7 7 7 8 10 9 8 6 6 5 3 6 6 5 6 5 6 6 4 4 3 2 2 5 6 6 7 7 5 4 6 5 3 3 3 4 5 4
5 5 5 8 8 9 9 9 9 9 8 7 10 10 9 5 2 4 8 8 8 10 6 6 6 5 3 1 3 9 11 11 13 13 11 11 11 10 9 9 10 10 11 11 12 11 10 7 8 9 8 6 7 7 6 6 6 7 5 11 9 9 4 3 3 3 2 1 2 2 2 2 1 0 1 1 2 3 5 5 6 4 3 3 4
10 11 11 10 10 10 9 8 7 7 6 7 8 8 8 7 7 8 8 7 5 5 5 6 6 4 4 5 6 7 10 10 9 11 10 9 10 12 11 9 11 11 12 10 11 10 10 10 8 8 8 8 8 7 5 6 8 8 14 10 7 5 5 4 2 2 2 4 2 2 2 2 2 2 1 3 2 3 3 3 3 3 4 4 5
11 9 8 9 6 5 5 6 6 7 8 8 8 8 7 6 8 8 8 8 9 9 8 6 6 6 5 6 7 8 9 11 11 12 11 10 10 9 9 8 9 11 12 11 11 10 10 10 9 9 10 9 9 5 5 7 8 7 7 6 7 7 6 4 4 4 4 4 4 2 2 2 1 2 2 3 3 3 3 3 3 3 3 4 3
9 9 8 6 5 6 6 6 7 6 6 5 5 6 7 8 8 8 8 8 8 8 9 9 7 8 9 7 9 8 9 11 8 11 11 12 12 11 11 10 9 10 10 10 11 10 11 11 10 10 9 9 9 8 7 7 7 6 5 3 3 3 4 3 2 3 3 2 2 3 4 3 3 3 3 3 4 4 5 3 4 2 2 3 4
6 5 6 7 6 7 7 6 4 4 4 5 5 6 7 7 7 5 7 8 9 10 10 10 9 8 9 10 8 9 7 6 7 9 11 12 12 12 12 12 12 12 11 11 11 12 11 12 12 10 9 7 9 8 7 6 5 6 6 5 5 3 3 3 2 2 3 4 4 4 5 5 3 4 4 3 3 3 4 4 5 3 5 3 3
5 5 5 5 5 6 6 5 4 5 5 5 6 7 6 7 7 7 7 7 7 9 11 12 12 11 10 11 11 9 9 8 7 10 12 12 12 12 11 11 10 10 10 11 11 11 11 10 11 8 8 11 11 9 9 10 8 6 4 3 3 4 3 2 1 2 3 2 3 2 2 3 2 3 3 3 4 5 3 4 5 6 5 5 5
4 5 6 6 5 5 4 4 4 5 6 7 7 7 6 7 7 7 7 8 9 10 11 12 12 12 12 12 12 9 8 7 9 13 14 10 9 8 8 8 9 8 7 8 10 10 11 11 10 13 12 13 14 14 15 7 2 2 1 1 2 2 3 4 4 2 2 3 3 3 4 5 5 5 6 6 6 4 6 5 5 4 3 5 4
5 5 5 5 5 5 5 5 5 6 5 5 7 7 7 7 6 6 7 9 10 10 11 12 12 11 12 11 12 12 10 8 13 11 12 15 11 9 8 6 5 5 7 8 8 9 10 10 7 8 8 9 9 14 15 11 6 3 3 3 2 2 2 4 2 2 2 3 3 4 5 6 5 5 5 5 3 4 4 3 5 4 4 4 4
6 6 5 5 5 5 5 5 5 6 5 6 5 6 6 6 6 6 7 10 10 11 13 14 14 12 12 13 13 13 12 14 13 12 11 11 10 8 8 7 7 7 7 7 7 7 6 7 8 6 5 7 7 7 9 9 7 5 3 3 4 3 2 0 1 1 3 4 4 5 4 5 4 3 3 3 2 2 2 2 1 1 2 2 2
6 6 5 5 5 5 5 6 5 5 4 4 4 5 5 5 6 5 7 6 7 9 10 10 11 11 11 13 14 11 12 11 11 15 13 11 8 4 7 8 8 8 8 7 3 2 4 6 6 6 9 13 10 6 3 3 5 7 7 7 6 5 5 6 5 5 3 5 4 5 4 3 4 3 2 2 2 4 3 3 2 2 2 2 2
6 5 4 5 5 5 5 6 5 5 4 4 5 4 4 4 4 3 4 5 5 5 7 10 10 10 9 9 8 8 9 10 12 14 14 12 10 6 1 3 4 3 3 3 2 1 2 3 2 3 3 2 2 3 3 3 4 5 5 4 4 7 8 8 10 10 7 6 6 8 6 4 7 4 3 3 3 3 3 4 1 1 3 4 3
5 5 5 5 5 5 5 5 5 4 4 4 3 4 3 3 3 1 1 3 5 5 5 7 7 8 8 8 7 6 6 11 11 13 12 11 9 5 2 2 3 3 2 2 2 1 1 2 2 2 2 2 4 5 5 6 5 3 4 4 4 5 8 10 10 8 6 7 8 9 9 8 8 9 7 6 7 4 2 1 3 3 3 3 5
5 5 4 5 5 5 4 4 4 4 4 4 3 3 3 3 2 2 2 2 2 3 5 6 8 8 10 9 7 9 9 12 13 13 11 10 9 4 3 4 3 3 3 3 2 1 1 1 3 3 2 1 3 6 7 4 3 2 3 1 1 2 3 5 8 9 10 9 6 5 5 6 5 4 3 3 3 3 3 3 2 2 2 4 7
5 5 5 5 5 4 4 4 4 4 3 3 4 3 2 2 2 2 2 1 1 1 3 4 3 5 5 6 8 8 8 12 14 13 11 11 8 5 5 5 5 5 4 3 3 3 3 2 1 2 2 2 2 3 6 6 4 2 2 2 2 3 5 4 5 8 9 14 16 9 7 8 9 10 10 8 6 3 3 5 7 4 5 8 8
5 5 5 5 5 4 4 4 4 4 3 4 3 3 1 2 2 2 1 2 1 2 1 2 2 3 7 5 2 2 2 5 3 5 7 11 9 6 5 5 6 5 4 3 3 3 3 6 4 3 3 2 4 3 4 4 2 2 3 3 5 5 5 4 5 5 10 13 11 8 6 6 7 9 10 11 10 4 5 9 8 5 8 7 9
5 5 4 4 4 4 4 4 4 3 3 3 3 2 1 2 1 1 1 0 1 2 3 2 3 3 3 6 10 5 2 2 4 5 6 9 7 4 4 5 5 5 4 2 1 2 2 3 5 4 4 2 4 5 7 6 4 4 4 5 6 6 6 4 5 4 4 5 6 5 4 4 4 4 5 8 10 7 7 8 7 7 9 8 8
4 4 4 3 3 3 3 4 3 3 4 3 2 2 2 1 2 1 1 2 2 1 3 2 3 4 5 5 5 7 7 6 7 11 10 10 10 6 5 5 6 2 4 3 4 2 3 3 5 8 9 8 6 6 6 6 4 4 5 5 6 9 5 5 6 4 4 5 7 6 6 5 5 4 4 4 5 5 7 7 7 8 8 9 8
4 4 4 4 4 4 3 4 4 4 4 2 2 3 2 2 2 3 2 2 2 2 3 3 2 4 5 6 4 5 5 6 8 13 13 13 13 10 6 6 4 4 3 6 6 5 5 6 6 9 13 11 10 10 10 10 9 6 6 7 8 6 4 5 6 9 5 5 6 6 5 4 4 4 5 5 5 6 6 8 8 8 8 8 9
4 4 4 4 4 4 4 3 4 5 4 3 3 3 2 3 2 1 1 1 2 3 1 2 2 2 2 4 5 4 6 8 4 8 11 11 12 12 7 2 6 6 7 8 6 6 7 5 5 6 7 7 8 10 10 9 10 6 9 11 9 6 5 6 4 2 5 4 4 6 6 5 5 5 6 5 6 6 7 8 7 7 7 8 8
5 5 5 5 5 4 4 4 4 4 4 5 5 4 3 3 3 3 2 2 1 3 4 0 1 3 2 2 2 2 3 4 7 6 10 12 12 11 10 5 14 8 7 7 7 6 4 4 5 8 9 10 9 9 10 10 8 7 9 8 9 8 6 5 3 5 6 5 5 7 8 6 6 6 5 6 6 5 5 6 7 9 9 8 8
5 5 5 5 4 4 4 5 5 4 4 5 4 4 4 4 4 4 3 3 2 0 1 4 3 1 1 2 3 3 2 3 5 9 9 13 12 13 13 12 7 5 6 5 5 4 5 5 3 4 8 11 10 8 8 9 8 10 11 11 8 7 4 5 5 5 6 6 7 7 7 6 7 7 6 6 6 6 7 8 9 10 10 8 7
6 6 6 5 5 5 4 4 4 4 4 4 5 5 4 4 4 4 4 4 4 4 4 3 4 5 5 2 2 2 3 4 4 7 12 13 14 14 13 12 10 4 4 3 3 4 3 1 1 5 8 8 6 4 4 8 12 10 12 11 10 5 5 5 6 5 6 7 7 7 7 7 6 6 6 6 6 7 7 8 8 8 7 7 7
7 7 6 6 5 5 4 4 4 4 4 4 5 4 5 5 4 4 4 5 5 6 6 5 5 5 6 7 6 4 4 3 4 5 7 8 8 11 12 11 10 10 8 3 7 9 8 5 3 1 2 3 3 3 4 5 10 10 9 10 6 6 5 6 6 7 7 6 7 6 5 4 5 5 5 5 6 6 4 5 5 5 4 4 5
6 6 6 6 6 5 5 4 4 4 4 4 4 4 4 4 4 5 5 4 4 5 5 6 5 5 5 6 6 7 7 7 6 5 6 5 6 5 6 5 7 8 7 4 4 4 4 4 5 7 5 8 7 7 7 7 7 6 5 6 6 7 7 7 7 8 7 6 3 2 5 3 1 2 3 3 3 3 3 4 4 4 5 5 5
11 8 8 7 6 6 5 7 6 4 4 4 4 4 5 4 5 5 5 5 5 5 5 5 5 5 5 6 6 7 7 6 6 7 7 7 6 6 6 6 6 6 6 6 5 4 4 3 3 4 5 6 5 5 6 6 6 5 6 6 7 8 10 12 9 6 5 4 3 2 2 2 3 2 2 3 2 3 3 4 5 5 5 5 5
10 9 8 8 7 6 6 6 5 5 5 4 2 3 2 3 3 1 5 4 1 2 5 3 4 4 3 4 5 5 6 7 7 6 7 8 8 7 7 7 7 7 8 9 8 7 6 5 4 5 5 6 6 7 7 7 7 7 8 7 8 8 8 8 7 6 4 4 4 3 2 1 2 2 3 4 2 3 3 4 4 5 5 5 5
5 7 8 8 8 7 6 6 6 6 5 5 5 4 6 7 4 2 3 6 9 8 6 1 1 0 2 3 2 3 4 4 6 12 10 11 9 9 8 10 9 8 10 14 9 7 8 7 7 6 6 7 7 7 7 7 7 7 7 7 6 5 7 6 5 4 4 3 3 3 2 1 1 2 3 3 3 2 2 2 4 4 5 5 5
8 11 10 10 9 8 8 8 6 5 5 5 5 5 4 4 9 10 7 5 6 8 8 9 9 9 4 2 4 8 6 8 10 10 11 10 10 9 10 12 10 9 12 9 9 8 8 9 9 8 8 7 7 7 6 6 6 6 5 6 7 6 4 4 4 3 3 5 4 4 2 1 1 1 2 2 3 3 5 4 4 4 3 4 4
8 9 11 9 8 8 7 7 7 7 6 6 6 6 6 5 3 5 7 6 6 7 7 6 6 6 7 4 4 3 3 1 8 10 10 10 10 11 11 11 9 11 13 10 7 7 8 7 7 7 7 7 6 6 6 6 7 7 7 6 6 4 3 3 5 4 4 4 3 2 2 1 0 1 1 2 2 5 4 2 2 3 3 3 2
10 12 10 8 8 8 7 6 6 7 7 6 7 5 5 6 7 5 2 6 5 5 7 7 6 5 4 4 2 5 8 7 8 10 12 12 11 10 10 10 10 9 9 5 6 6 8 7 7 6 6 6 6 7 7 8 6 7 4 3 3 5 7 5 4 4 2 3 2 2 2 2 2 1 2 3 4 3 1 2 2 2 2 2 2
14 12 12 10 8 7 7 5 5 6 6 6 6 6 7 6 6 7 7 5 2 2 4 6 5 3 6 5 8 12 12 11 10 11 12 13 13 12 11 6 7 2 3 7 6 6 5 6 7 8 7 8 8 6 5 3 4 4 4 4 4 7 6 5 4 4 3 4 3 3 4 3 2 3 3 3 3 2 2 1 1 1 2 2 2
13 17 20 8 7 6 3 4 5 4 5 5 5 6 6 6 5 6 7 7 7 7 6 4 4 7 3 2 3 10 12 12 11 12 14 14 14 13 12 8 5 4 3 5 5 6 7 6 5 5 4 3 4 3 3 3 3 3 3 4 2 2 4 4 3 4 4 3 3 4 3 3 3 3 3 4 3 3 2 2 2 1 0 1 2
6 7 12 10 5 7 9 10 8 4 4 5 5 5 5 4 5 5 6 8 7 7 7 6 5 5 9 8 5 5 7 8 9 9 11 12 13 12 6 5 5 6 6 7 7 7 7 4 4 2 2 3 3 2 3 3 3 2 2 2 3 3 4 3 4 5 5 4 3 3 3 2 4 3 3 4 3 3 3 2 1 3 2 1 2
9 5 1 4 6 6 4 5 7 10 6 5 5 6 5 5 4 6 5 6 6 5 7 7 6 4 4 4 6 7 7 7 7 7 6 6 4 3 4 5 6 6 6 6 7 7 5 4 3 2 1 2 2 2 3 3 3 3 4 3 2 4 4 3 3 4 5 4 3 3 4 5 4 4 4 4 3 2 3 3 2 4 2 2 3
5 2 8 8 4 4 5 6 7 8 8 7 6 6 6 6 6 4 4 4 5 4 7 7 7 7 7 5 7 4 4 6 8 6 4 3 3 4 5 5 6 5 5 5 5 5 4 4 3 4 3 2 3 4 4 3 4 5 4 4 4 3 4 6 4 3 4 4 5 6 6 5 5 5 5 5 4 5 4 3 2 4 4 5 3
4 13 15 10 6 5 6 7 7 7 7 7 7 6 7 6 6 5 4 4 4 5 6 7 7 8 7 8 7 7 8 4 5 5 5 5 6 6 6 7 7 6 5 5 5 5 5 5 4 4 4 5 5 5 5 6 6 5 5 5 4 4 4 3 3 3 4 5 6 5 6 5 6 6 6 5 4 3 3 3 3 5 4 5 5
7 6 7 12 9 8 8 8 4 4 6 5 6 7 8 6 6 6 5 5 5 5 5 8 8 7 8 10 9 9 8 8 8 8 8 8 8 8 8 8 7 6 6 5 5 5 6 6 6 6 6 6 6 6 4 2 4 4 3 4 5 4 4 5 5 7 7 7 7 5 4 4 3 2 3 2 3 1 3 3 4 5 4 3 5
6 7 6 8 9 6 4 5 3 7 10 10 7 7 7 6 6 6 6 7 6 5 5 5 6 6 10 14 18 17 10 9 9 9 9 9 9 9 9 8 8 7 6 5 6 6 6 7 6 6 5 4 3 4 3 3 4 4 3 3 4 5 6 7 6 6 7 6 3 4 3 3 3 3 2 3 2 3 5 2 2 0 2 4 1
7 7 6 5 7 6 7 7 8 11 10 10 9 8 6 6 6 7 6 5 5 5 6 6 6 6 13 21 20 20 10 7 8 8 8 9 9 8 8 8 8 7 7 6 6 7 7 5 5 5 5 4 4 5 4 5 6 7 6 5 6 7 6 6 6 6 4 3 3 3 3 4 3 2 2 3 4 5 4 4 2 1 0 2 2
5 5 4 3 5 5 5 6 4 4 7 10 10 8 7 6 6 6 6 5 6 7 7 7 5 6 10 18 19 19 9 8 7 8 7 8 8 8 8 9 8 8 6 6 5 6 6 6 4 5 4 5 4 5 5 5 6 5 7 7 6 6 5 4 5 3 3 4 4 3 1 3 5 4 5 5 3 2 2 1 3 4 4 2 0
8 6 5 4 5 5 6 5 5 8 8 7 6 6 6 5 6 6 6 8 9 7 5 5 3 6 6 8 9 9 7 8 8 8 8 8 8 8 9 8 7 7 7 6 6 5 5 5 4 5 4 5 6 6 6 6 5 4 5 5 5 5 4 3 5 4 4 4 3 5 4 3 4 2 2 4 3 1 1 2 1 2 1 1 2
6 6 6 7 6 5 5 5 6 6 7 8 7 6 6 6 6 7 7 7 5 6 5 5 5 7 7 8 8 9 8 8 7 7 7 8 8 7 6 6 6 6 5 6 5 5 6 6 5 6 6 7 7 6 6 5 3 5 4 3 5 4 4 3 4 5 6 5 4 5 4 6 6 5 4 3 2 1 2 4 2 2 1 3 4
5 6 5 5 5 4 4 4 5 6 5 6 5 6 6 6 6 6 5 6 5 6 7 7 6 7 9 8 9 8 9 8 8 7 7 7 6 6 6 6 7 7 6 6 6 5 6 6 6 6 7 6 6 6 4 5 5 4 5 3 4 4 4 3 3 4 3 2 0 1 2 2 1 2 0 2 1 1 3 3 4 1 3 2 0
3 5 7 5 4 4 4 4 5 5 6 5 4 6 5 6 6 6 5 6 6 5 6 7 7 6 8 9 9 9 9 9 8 8 8 8 7 6 6 6 7 7 6 6 6 6 6 6 6 7 6 5 4 5 4 5 5 3 3 1 2 3 5 5 4 4 4 3 2 2 2 2 2 1 3 4 4 3 4 1 2 4 2 1 1
7 7 6 5 5 4 4 4 5 5 5 6 7 6 7 7 6 5 5 5 6 6 6 5 6 6 7 8 9 8 8 8 7 7 8 8 7 6 6 6 6 6 6 6 6 7 7 6 6 6 7 6 5 6 7 4 4 3 2 2 1 4 7 4 4 4 3 1 3 3 2 2 2 2 3 1 1 1 2 2 2 2 2 2 1
6 5 3 4 6 7 5 4 4 3 3 4 7 10 9 7 6 6 6 6 6 7 7 6 6 7 7 7 7 8 8 7 7 7 7 6 6 5 5 5 7 7 8 7 7 7 7 6 5 4 5 5 5 5 5 5 4 4 5 3 8 11 12 11 6 4 4 3 2 2 1 2 2 3 3 3 3 3 3 2 2 3 3 2 3
4 4 3 5 6 6 5 5 5 7 7 7 7 8 8 8 7 6 7 7 8 7 7 7 6 6 5 6 7 6 6 6 7 7 7 6 6 6 6 7 7 7 7 7 7 6 6 5 5 5 6 6 8 8 5 6 4 5 5 7 12 13 12 11 9 6 4 2 1 2 2 2 2 3 3 2 2 3 2 2 4 4 3 3 3
4 6 7 8 9 8 7 7 7 6 5 5 3 3 5 9 10 8 7 7 8 7 7 7 7 7 6 5 4 5 6 5 5 5 4 4 5 6 7 7 8 9 10 7 6 6 7 7 7 9 9 8 5 7 5 5 6 3 10 16 14 13 14 11 7 6 6 3 1 2 2 3 2 3 3 2 3 3 2 4 4 2 1 1 2
Wind_Direction
142 166 203 216 233 222 193 200 215 208 188 185 196 204 201 211 224 214 207 229 241 236 207 207 217 217 209 202 208 194 198 200 200 189 182 184 183 198 191 188 194 201 199 206 212 213 205 208 185 184 184 207 219 202 221 233 265 331 26 295 262 213 149 176 185 247 276 289 165 205 179 196 190 226 161 180 177 203 237 244 151 160 171 183 191
169 180 188 199 208 225 223 207 213 207 205 202 203 205 197 199 218 223 229 218 227 254 236 236 217 198 213 209 215 205 191 196 199 191 194 187 195 201 191 175 188 203 196 206 216 228 186 193 192 195 186 210 225 221 177 207 250 275 189 226 271 258 192 174 199 199 248 243 263 181 180 198 198 215 204 174 157 197 205 222 177 188 188 196 193
196 189 184 177 199 219 226 211 208 214 215 213 218 220 219 203 215 211 224 235 215 221 218 185 287 317 252 207 204 209 201 188 195 198 197 197 197 200 200 182 188 200 204 204 212 226 216 189 204 211 209 213 212 217 210 193 185 174 258 271 250 251 229 190 185 194 213 237 211 235 185 207 211 186 206 180 193 182 208 237 246 219 227 221 222
205 207 213 210 206 208 215 217 213 211 212 220 222 218 223 211 162 170 216 240 228 223 163 213 235 230 224 291 263 220 211 202 197 201 201 194 196 204 197 177 190 200 209 209 212 213 224 215 207 214 218 215 223 216 196 209 192 167 226 243 244 245 299 257 190 171 183 251 279 274 335 6 324 351 125 144 179 191 208 216 211 229 232 249 251
189 194 190 204 202 203 204 210 205 211 211 227 231 231 219 197 192 209 206 217 243 233 197 193 201 189 189 214 225 236 210 205 200 198 200 201 201 205 207 191 192 197 206 215 213 213 213 219 208 209 218 222 229 233 217 219 230 189 202 204 213 208 211 223 163 178 184 206 240 271 294 292 293 292 251 276 270 253 224 228 226 241 233 225 254
174 178 193 208 210 211 204 200 215 216 219 219 231 237 239 221 175 199 190 214 215 225 219 202 200 189 199 210 217 234 234 213 188 192 192 197 205 209 205 207 199 197 206 213 218 218 218 214 219 211 216 219 231 225 218 220 229 236 242 216 190 192 213 219 198 178 195 204 196 221 214 239 284 269 265 239 233 249 264 252 246 256 244 240 259
170 186 181 182 194 215 222 217 199 210 217 226 226 229 232 227 221 191 191 202 216 222 222 214 194 188 202 216 219 224 241 236 199 189 192 199 201 205 201 201 199 204 207 214 218 221 225 218 215 223 216 211 222 229 228 240 244 237 249 262 267 212 204 204 200 191 193 208 222 222 241 235 224 259 259 261 257 242 248 270 274 264 277 277 264
175 179 170 180 198 202 220 223 206 204 220 224 219 225 230 236 232 202 192 206 216 222 223 221 212 197 196 204 205 214 239 258 219 201 195 198 201 208 202 197 198 206 208 209 214 220 225 225 221 214 218 210 220 220 227 239 238 228 222 206 212 205 235 243 226 223 206 210 217 231 212 224 226 224 231 228 240 247 221 218 232 229 237 230 241
171 166 171 199 205 211 212 208 199 214 221 217 216 218 231 240 240 218 202 211 219 223 227 224 225 211 202 207 209 209 219 233 238 207 189 194 197 194 204 200 198 203 206 207 211 217 225 227 229 229 217 217 208 216 228 234 238 227 212 234 211 201 203 218 252 246 250 247 258 251 269 265 242 236 246 236 229 230 216 212 232 228 227 237 237
186 180 189 196 203 223 230 225 217 220 219 227 225 227 231 245 244 240 214 214 215 217 222 226 224 218 212 209 210 207 216 225 221 223 197 179 184 184 191 197 194 202 208 216 220 213 215 226 228 228 234 226 219 223 236 235 137 294 77 322 265 200 182 186 200 212 233 241 239 247 251 247 247 236 232 234 236 245 255 251 255 251 236 235 241
194 194 206 205 199 205 213 216 216 221 221 246 245 233 236 239 239 235 230 225 230 222 219 221 222 221 219 213 202 199 205 223 215 219 195 189 185 188 190 192 194 194 201 208 218 220 219 210 220 233 242 253 231 222 221 229 224 195 161 154 47 345 199 180 181 209 241 246 247 246 248 254 255 262 264 271 255 245 228 209 219 221 222 234 255
197 207 204 212 204 211 217 224 223 222 228 245 237 257 250 247 255 261 259 259 251 228 222 221 222 221 220 221 217 197 202 231 212 205 200 191 190 187 192 194 200 211 218 222 215 225 234 229 208 206 210 228 239 231 229 224 221 227 220 163 172 252 300 158 159 199 221 235 241 244 256 261 270 272 282 283 291 303 312 322 283 285 273 261 251
208 208 212 211 211 212 218 224 228 241 223 239 274 247 242 249 255 253 267 277 274 243 215 213 215 215 214 215 216 196 181 211 219 191 200 195 200 210 197 198 202 201 206 212 226 234 232 228 229 208 218 208 216 228 219 200 212 223 231 244 244 221 245 263 233 227 272 274 269 268 257 274 273 267 288 309 351 306 318 309 319 336 360 315 307
205 212 211 215 214 214 219 222 238 239 227 218 232 245 245 245 243 247 277 280 273 248 204 212 209 209 212 217 205 178 171 191 238 208 194 191 198 205 352 206 143 121 128 139 176 296 333 323 247 228 240 235 200 203 238 235 206 204 220 227 241 259 249 236 249 255 251 254 258 261 263 264 266 271 289 313 314 294 291 273 297 273 258 251 259
206 211 208 218 218 220 220 224 236 239 242 242 240 249 271 281 302 343 248 266 268 246 227 220 213 205 210 208 186 187 173 176 226 223 186 181 183 187 212 228 164 150 165 155 157 144 15 290 269 246 98 85 99 87 73 58 51 55 60 17 346 343 327 318 318 303 263 237 242 251 259 264 272 278 280 279 274 272 282 209 186 207 243 267 277
213 213 215 219 219 217 225 229 230 237 241 243 251 261 267 289 236 183 216 219 277 270 241 233 217 204 201 198 198 200 191 196 219 226 186 175 162 177 200 220 229 207 187 169 172 150 201 58 21 35 55 76 64 88 102 105 106 117 140 162 312 308 246 203 232 272 298 312 288 264 256 269 287 277 298 319 320 309 298 115 117 157 231 263 270
214 212 209 215 226 230 232 228 233 239 243 250 262 266 265 253 199 194 238 257 215 19 302 245 194 185 199 190 184 190 195 190 210 217 186 163 155 181 196 209 219 225 225 201 173 181 152 127 162 211 160 197 158 100 101 100 109 125 124 128 194 211 255 295 267 265 287 284 274 272 285 300 306 309 307 288 261 284 326 294 260 227 242 267 267
212 209 212 204 202 220 227 233 236 241 243 256 258 267 216 233 186 184 233 238 184 140 93 66 74 142 149 133 146 167 147 119 172 224 166 157 171 174 188 199 211 214 209 214 116 128 167 190 206 208 202 212 125 136 95 103 129 168 185 200 232 241 245 243 260 220 242 256 249 240 242 254 266 267 267 270 271 238 218 249 258 244 253 248 263
210 211 210 204 199 197 198 218 234 238 248 249 253 268 230 218 111 156 176 137 119 135 145 119 95 65 81 136 169 177 197 148 162 199 202 182 182 184 181 196 204 204 185 124 163 141 163 173 200 211 220 207 129 168 164 173 181 190 172 192 222 233 230 230 254 258 247 254 255 269 266 219 220 238 249 255 259 241 225 246 261 251 259 259 258
208 202 207 210 195 201 197 211 216 226 238 233 228 228 202 194 156 130 163 179 179 140 122 125 138 153 156 149 172 172 172 183 177 183 193 192 191 192 199 194 208 156 65 259 216 198 199 207 226 221 226 229 203 167 164 168 151 181 188 211 216 239 228 235 243 248 275 275 278 271 263 261 250 241 245 256 263 242 225 229 233 235 243 255 252
207 196 210 198 201 206 194 210 202 210 222 230 194 200 189 230 176 168 179 136 137 140 146 140 152 167 165 171 176 174 172 174 194 187 185 190 193 199 197 202 106 105 171 248 230 214 211 205 215 211 211 210 209 213 212 194 188 194 199 219 224 226 219 229 243 251 248 261 272 272 266 254 255 260 259 257 255 255 250 240 238 233 234 247 254
194 202 209 205 203 203 203 203 200 208 190 150 200 204 203 204 190 137 100 241 161 153 122 170 161 142 159 179 191 194 196 198 158 183 188 196 199 201 213 147 109 160 191 213 219 227 228 225 220 229 193 185 204 212 218 208 192 208 222 230 235 217 234 248 246 228 260 248 265 273 269 261 257 255 255 258 257 252 250 250 250 256 248 245 248
197 206 209 211 202 200 202 199 204 221 197 179 200 210 201 199 179 153 173 164 221 150 163 76 73 132 165 201 187 215 203 210 199 175 190 196 201 205 209 166 149 177 189 217 225 232 227 219 231 225 196 208 205 205 208 207 195 214 226 235 235 216 217 232 212 227 230 229 234 252 255 252 250 251 250 254 254 259 277 283 281 268 255 248 245
199 206 211 210 204 201 198 197 202 195 207 198 207 218 204 197 181 179 169 145 128 235 169 149 179 164 149 209 206 196 171 181 197 191 186 194 195 197 202 211 177 183 194 216 218 230 231 231 240 239 208 207 213 212 206 200 209 211 218 219 203 191 210 215 222 223 232 235 232 233 237 237 242 248 248 250 254 257 265 267 266 265 262 260 256
198 204 206 206 203 207 194 202 197 192 190 203 203 213 209 207 187 176 185 172 163 192 197 190 178 168 177 204 284 237 199 202 199 186 180 189 194 196 203 204 209 194 184 210 195 220 243 157 91 225 215 200 202 210 196 203 210 209 206 202 199 201 203 215 222 224 224 231 232 239 245 240 239 247 255 259 259 260 260 259 253 254 258 258 256
202 201 202 196 204 201 198 201 200 205 192 188 216 204 207 204 193 185 189 199 188 190 190 177 198 191 174 158 187 203 229 238 213 194 188 182 185 196 197 201 198 201 208 229 230 223 217 192 148 111 79 123 147 188 204 199 199 198 191 192 203 210 215 214 217 220 231 232 235 242 263 261 253 241 240 242 249 250 251 270 290 298 303 304 302
224 218 207 202 198 193 196 199 209 205 208 203 200 211 218 215 189 185 202 208 201 208 196 184 194 200 178 173 160 171 187 191 201 195 186 180 186 185 190 202 196 183 199 200 169 177 188 176 168 177 177 192 197 208 215 211 197 202 199 203 209 222 220 220 219 219 219 223 239 210 237 245 278 267 255 262 283 308 336 324 321 327 334 319 307
273 246 230 218 206 199 191 203 209 195 200 207 208 204 214 217 216 201 210 196 192 203 215 193 195 202 178 179 169 169 172 181 191 188 188 179 181 166 174 168 172 186 190 190 188 179 180 186 153 189 179 175 203 217 216 223 219 202 204 202 211 219 229 234 236 232 228 220 220 220 236 221 277 300 317 296 289 330 347 346 346 325 315 311 300
237 246 245 234 219 194 194 192 201 208 193 200 155 52 53 39 353 290 51 12 334 234 217 214 191 201 195 177 167 175 185 189 193 181 173 178 170 169 173 183 178 186 192 182 182 190 185 186 194 204 212 214 215 219 218 215 218 215 217 214 214 214 217 215 212 199 189 174 198 191 210 247 273 312 300 292 318 6 22 353 318 298 299 291 290
277 264 238 231 225 196 188 204 197 205 199 188 160 109 69 83 68 36 86 52 53 35 24 105 10 347 151 83 47 187 201 179 155 154 150 158 158 169 172 171 174 181 184 185 188 191 193 194 201 207 214 219 224 222 222 220 216 212 216 223 219 211 219 205 208 170 169 168 163 168 187 155 278 275 286 309 359 355 337 273 268 273 278 292 306
208 230 238 233 224 212 196 205 197 188 204 185 191 154 167 88 49 53 87 96 68 56 48 24 13 21 26 146 89 57 77 132 151 154 146 148 152 147 148 156 165 180 165 162 200 203 195 206 210 216 219 219 222 224 219 209 208 217 221 215 220 191 152 159 152 130 90 62 43 36 31 44 316 347 332 348 334 307 275 246 253 269 289 322 334
233 237 234 221 221 228 206 192 196 178 201 189 189 182 172 164 152 36 33 71 91 93 80 64 38 37 25 16 124 86 34 109 149 144 147 147 153 153 149 146 154 158 170 174 193 204 203 204 210 219 223 223 223 220 222 217 215 213 219 195 195 165 145 94 70 84 102 128 116 60 10 294 303 354 346 281 255 262 263 291 309 326 324 318 335
237 244 237 226 217 207 207 197 190 182 186 189 190 185 202 185 178 176 90 44 52 75 82 72 71 57 57 30 261 169 160 168 157 138 137 138 134 131 118 117 128 140 130 170 209 211 213 210 217 220 215 209 215 227 220 219 202 167 171 159 164 110 101 127 124 98 110 106 133 150 235 199 161 193 230 236 249 265 322 309 313 318 325 333 348
230 240 245 224 214 199 192 208 201 191 179 188 196 185 200 220 204 166 161 170 168 57 53 67 71 81 72 68 128 132 139 151 154 142 139 139 138 133 123 109 98 102 177 197 207 226 229 219 209 212 215 216 208 199 178 128 98 93 105 112 99 113 136 147 162 156 155 147 174 196 203 189 159 198 221 245 233 227 221 228 288 11 348 336 326
221 230 238 279 326 319 249 216 220 206 190 198 206 199 202 205 238 161 170 177 187 187 180 154 81 47 68 83 107 139 143 147 147 146 144 144 144 140 125 127 140 172 208 244 232 232 241 235 222 208 195 158 114 111 116 111 113 123 113 97 119 146 124 159 165 149 161 168 190 201 181 165 195 215 229 231 206 193 180 178 158 162 287 345 345
257 18 40 29 357 342 330 321 310 266 215 213 215 220 223 211 212 221 184 183 186 181 177 152 133 86 84 63 62 94 117 130 138 142 145 145 155 154 160 179 190 188 194 200 215 229 243 248 262 268 155 154 130 146 147 146 116 109 136 160 156 176 194 182 170 162 166 170 197 148 137 206 209 195 228 247 214 195 174 158 189 135 124 49 339
65 61 242 184 195 195 191 238 274 291 283 241 224 225 227 234 226 210 217 210 200 185 141 130 128 125 113 98 92 74 81 98 109 114 124 142 167 218 227 220 223 201 199 194 199 222 221 234 238 267 160 156 153 130 121 159 164 172 166 175 178 166 197 192 140 143 143 163 195 194 184 212 189 191 210 228 214 192 171 166 170 122 125 168 248
81 223 238 225 234 233 227 232 226 232 240 233 229 230 224 225 230 232 220 215 201 184 136 157 165 167 174 164 160 153 112 97 94 81 74 83 143 210 232 250 262 232 198 203 202 207 212 218 211 221 197 156 155 198 195 189 169 176 177 146 146 181 93 108 129 160 164 202 211 195 200 191 176 202 205 219 215 182 173 173 165 135 162 170 164
167 234 230 214 207 225 231 232 234 225 226 225 226 227 231 221 221 236 231 219 209 203 157 163 180 188 173 138 154 136 129 142 171 187 186 196 201 210 220 231 237 232 226 213 192 194 203 205 202 205 206 209 181 184 200 202 184 186 172 164 163 170 156 193 176 173 197 216 230 213 191 183 174 192 205 219 200 143 173 182 177 158 183 184 172
228 246 230 215 218 228 248 246 272 322 298 249 228 225 226 221 220 216 221 231 218 219 194 175 187 193 146 149 154 160 175 179 191 192 192 196 203 209 215 222 228 229 221 211 205 196 202 203 202 195 201 217 206 188 175 137 122 143 171 161 162 173 187 198 199 202 210 220 215 185 167 183 184 126 233 199 99 140 240 181 192 193 190 208 177
227 237 229 203 199 191 207 227 219 238 259 257 234 228 221 216 210 218 219 218 218 214 223 216 206 168 153 169 167 171 178 183 189 195 193 195 199 203 209 215 220 223 227 216 193 199 213 215 188 195 192 172 139 143 163 180 168 160 185 185 192 191 193 204 203 199 209 213 157 170 170 186 167 200 181 98 191 228 243 182 217 189 190 197 218
227 244 230 183 167 171 200 209 200 206 225 246 247 237 221 214 213 215 216 214 231 228 227 215 211 161 163 168 170 180 188 191 192 197 200 197 201 204 205 211 215 222 221 220 198 195 213 215 206 191 143 164 188 143 185 199 188 190 169 188 205 215 203 185 196 210 181 164 201 171 158 137 115 240 184 187 225 224 196 201 208 156 4 28 58
237 239 251 169 185 203 209 230 235 207 211 227 228 223 222 214 215 219 214 206 220 214 221 223 216 133 163 173 176 182 201 203 204 199 207 203 202 201 203 212 216 218 222 221 214 198 202 214 170 152 171 164 187 173 205 196 217 190 184 192 189 208 220 184 171 164 172 208 164 153 132 161 183 204 215 196 218 231 260 253 185 200 182 197 100
223 212 210 203 217 200 226 221 229 233 240 240 218 233 236 227 224 229 221 207 216 227 231 237 211 137 148 171 171 183 207 210 216 215 211 215 208 200 208 211 214 216 212 213 215 208 192 184 172 166 176 171 203 183 187 208 208 203 233 169 190 182 195 209 150 159 186 210 172 150 177 209 219 210 249 215 189 308 289 308 294 135 147 130 96
196 213 198 197 208 211 220 239 256 237 205 234 229 210 223 231 226 229 239 238 201 193 209 227 218 146 154 164 177 191 207 214 219 229 225 220 215 215 209 208 210 215 217 211 209 200 179 200 186 165 200 192 195 192 190 208 220 193 219 198 171 171 183 216 159 171 186 209 183 167 198 192 188 197 226 99 77 204 276 277 244 142 169 61 12
265 258 227 196 190 207 235 249 265 278 261 231 221 220 217 229 236 241 233 239 234 195 202 210 225 166 167 174 183 192 202 214 220 224 236 234 225 212 211 212 213 205 208 207 212 196 183 199 179 183 204 214 185 184 166 191 225 223 202 230 155 156 168 218 182 183 157 129 92 247 275 293 68 111 149 104 195 189 237 243 261 96 53 2 152
256 242 261 258 211 198 221 236 253 272 298 289 238 224 235 233 226 226 228 231 238 238 218 201 203 201 167 179 184 191 201 207 219 223 222 230 228 210 208 213 212 210 206 203 206 189 188 191 188 186 198 209 175 164 201 194 206 215 151 141 167 181 172 192 170 144 127 144 188 254 248 283 294 246 160 187 231 226 213 166 19 14 351 85 357
215 221 210 254 269 236 223 227 233 237 242 266 280 260 233 233 222 224 220 222 231 247 249 226 198 208 200 188 184 193 195 206 214 224 223 219 216 207 195 191 209 211 211 208 203 181 188 191 197 186 193 207 180 183 210 199 177 181 154 181 83 86 58 41 125 101 78 110 158 185 231 234 262 262 267 325 207 279 11 9 25 18 324 321 308
221 230 195 205 236 252 243 236 248 256 239 255 263 259 246 235 229 220 224 226 226 224 239 239 224 215 209 201 193 196 196 200 210 209 216 222 211 191 191 195 204 205 208 209 206 178 175 183 195 197 197 199 197 206 191 158 166 178 181 151 121 110 90 82 78 79 90 60 18 359 356 328 277 283 291 259 242 236 206 176 190 226 227 246 260
216 244 194 229 244 241 234 236 212 215 212 201 230 268 288 265 233 226 228 230 229 224 221 232 245 245 223 204 199 207 209 203 207 213 213 205 201 185 188 196 209 209 213 212 197 169 169 174 178 204 227 227 193 199 174 175 188 189 179 140 143 128 120 110 106 101 98 126 30 257 269 259 262 261 247 233 261 272 257 212 217 211 195 215 255
255 225 195 219 234 232 216 218 236 234 216 212 237 230 249 270 262 238 221 222 234 232 219 214 217 231 240 231 208 199 206 212 222 218 220 211 199 189 194 200 203 207 210 205 169 173 168 181 192 208 218 225 187 169 173 160 201 209 136 143 145 137 136 134 126 122 109 90 173 272 272 270 275 270 273 276 256 226 235 247 213 154 138 223 257